URKAI UKHZ-UIUN

Flight info

Callsign URKAI
Flight time N/A
Altitude 7500
Route DCT
Aircraft TBM9/L-SDFGY/S

Departure

Time N/A
Airport UKHZ

Arrival

Time 2026-04-15 05:03
Airport Nizhneangarsk International Airport (UIUN)
Time Latitude Longitude Altitude Speed Heading
2026-04-15 04:06 53.21847 107.41371 1649 ft 0 kts 254°
2026-04-15 04:11 53.21846 107.41364 1656 ft 9 kts 253°
2026-04-15 04:11 53.21783 107.40912 1654 ft 70 kts 259°
2026-04-15 04:11 53.21674 107.40002 1895 ft 69 kts 258°
2026-04-15 04:12 53.21477 107.39282 2162 ft 70 kts 242°
2026-04-15 04:12 53.21206 107.38430 2256 ft 99 kts 252°
2026-04-15 04:12 53.20863 107.37412 2700 ft 106 kts 231°
2026-04-15 04:12 53.20141 107.37004 3129 ft 122 kts 174°
2026-04-15 04:13 53.19470 107.37934 3416 ft 141 kts 116°
2026-04-15 04:13 53.19403 107.39601 3660 ft 148 kts 70°
2026-04-15 04:13 53.19754 107.41233 4105 ft 143 kts 67°
2026-04-15 04:13 53.20220 107.42609 4619 ft 141 kts 56°
2026-04-15 04:14 53.20674 107.44167 4862 ft 155 kts 67°
2026-04-15 04:14 53.20974 107.45909 5246 ft 154 kts 73°
2026-04-15 04:14 53.21295 107.47613 5672 ft 157 kts 71°
2026-04-15 04:14 53.21572 107.49371 6206 ft 150 kts 69°
2026-04-15 04:15 53.21898 107.51074 6497 ft 160 kts 76°
2026-04-15 04:15 53.22160 107.52912 6714 ft 168 kts 76°
2026-04-15 04:15 53.22488 107.54760 7107 ft 162 kts 71°
2026-04-15 04:15 53.22754 107.56599 7370 ft 167 kts 73°
2026-04-15 04:16 53.23190 107.58355 7713 ft 163 kts 62°
2026-04-15 04:16 53.23534 107.60233 7868 ft 179 kts 82°
2026-04-15 04:16 53.23721 107.62327 8104 ft 183 kts 80°
2026-04-15 04:16 53.23970 107.64387 8544 ft 177 kts 71°
2026-04-15 04:17 53.24336 107.66419 8547 ft 192 kts 71°
2026-04-15 04:17 53.24700 107.68584 8440 ft 196 kts 75°
2026-04-15 04:17 53.25059 107.70830 8083 ft 203 kts 73°
2026-04-15 04:17 53.25433 107.73166 7588 ft 210 kts 78°
2026-04-15 04:18 53.25749 107.75439 7564 ft 195 kts 77°
2026-04-15 04:18 53.26007 107.77422 7561 ft 159 kts 77°
2026-04-15 04:18 53.26242 107.79114 7558 ft 142 kts 76°
2026-04-15 04:18 53.26486 107.80743 7575 ft 150 kts 72°
2026-04-15 04:19 53.26991 107.82243 7574 ft 151 kts 32°
2026-04-15 04:19 53.27936 107.83019 7587 ft 154 kts 21°
2026-04-15 04:19 53.28944 107.83796 7593 ft 172 kts 21°
2026-04-15 04:19 53.30131 107.84701 7598 ft 201 kts 22°
2026-04-15 04:20 53.31466 107.85718 7597 ft 219 kts 22°
2026-04-15 04:20 53.32893 107.86800 7587 ft 230 kts 22°
2026-04-15 04:20 53.34377 107.87920 7587 ft 237 kts 22°
2026-04-15 04:20 53.35907 107.88998 7586 ft 240 kts 19°
2026-04-15 04:21 53.37478 107.89970 7589 ft 241 kts 19°
2026-04-15 04:21 53.39050 107.90979 7587 ft 243 kts 20°
2026-04-15 04:21 53.40605 107.92008 7583 ft 243 kts 20°
2026-04-15 04:21 53.42188 107.93025 7580 ft 243 kts 17°
2026-04-15 04:22 53.43814 107.93826 7573 ft 243 kts 13°
2026-04-15 04:22 53.45450 107.94553 7572 ft 243 kts 13°
2026-04-15 04:22 53.47084 107.95269 7573 ft 243 kts 13°
2026-04-15 04:22 53.48724 107.95985 7570 ft 243 kts 13°
2026-04-15 04:23 53.50360 107.96697 7567 ft 243 kts 13°
2026-04-15 04:23 53.51996 107.97408 7568 ft 243 kts 13°
2026-04-15 04:23 53.53612 107.98107 7573 ft 243 kts 13°
2026-04-15 04:23 53.55273 107.98825 7567 ft 243 kts 13°
2026-04-15 04:24 53.56890 107.99521 7562 ft 243 kts 13°
2026-04-15 04:24 53.58532 108.00225 7565 ft 243 kts 13°
2026-04-15 04:24 53.60174 108.00927 7568 ft 243 kts 13°
2026-04-15 04:24 53.61814 108.01629 7563 ft 244 kts 13°
2026-04-15 04:25 53.63467 108.02333 7568 ft 246 kts 13°
2026-04-15 04:25 53.65136 108.03045 7571 ft 249 kts 13°
2026-04-15 04:25 53.66832 108.03771 7570 ft 252 kts 13°
2026-04-15 04:25 53.68523 108.04494 7571 ft 255 kts 13°
2026-04-15 04:26 53.70252 108.05234 7567 ft 256 kts 13°
2026-04-15 04:26 53.71982 108.05973 7572 ft 256 kts 13°
2026-04-15 04:26 53.73713 108.06708 7576 ft 257 kts 13°
2026-04-15 04:26 53.75447 108.07444 7572 ft 257 kts 13°
2026-04-15 04:27 53.77179 108.08180 7570 ft 255 kts 13°
2026-04-15 04:27 53.78869 108.08894 7654 ft 250 kts 13°
2026-04-15 04:27 53.80530 108.09590 7914 ft 243 kts 13°
2026-04-15 04:27 53.82154 108.10291 8178 ft 240 kts 15°
2026-04-15 04:28 53.83689 108.11372 8452 ft 239 kts 25°
2026-04-15 04:28 53.85182 108.12597 8720 ft 238 kts 22°
2026-04-15 04:28 53.86711 108.13701 8989 ft 238 kts 20°
2026-04-15 04:28 53.88243 108.14772 9262 ft 238 kts 20°
2026-04-15 04:29 53.89774 108.15867 9535 ft 239 kts 21°
2026-04-15 04:29 53.91338 108.16995 9577 ft 250 kts 21°
2026-04-15 04:29 53.92966 108.18175 9580 ft 257 kts 21°
2026-04-15 04:29 53.94615 108.19388 9577 ft 260 kts 21°
2026-04-15 04:30 53.96266 108.20563 9580 ft 261 kts 20°
2026-04-15 04:30 53.97944 108.21750 9589 ft 261 kts 21°
2026-04-15 04:30 53.99623 108.22955 9575 ft 262 kts 21°
2026-04-15 04:30 54.01303 108.24169 9578 ft 262 kts 21°
2026-04-15 04:31 54.02985 108.25383 9581 ft 264 kts 21°
2026-04-15 04:31 54.04675 108.26603 9574 ft 263 kts 21°
2026-04-15 04:31 54.06361 108.27823 9565 ft 263 kts 21°
2026-04-15 04:31 54.08044 108.29038 9571 ft 262 kts 20°
2026-04-15 04:32 54.09726 108.30254 9571 ft 262 kts 21°
2026-04-15 04:32 54.11405 108.31472 9568 ft 262 kts 21°
2026-04-15 04:32 54.13063 108.32668 9564 ft 262 kts 19°
2026-04-15 04:32 54.14754 108.33825 9569 ft 262 kts 21°
2026-04-15 04:33 54.16418 108.35103 9569 ft 262 kts 22°
2026-04-15 04:33 54.18092 108.36348 9567 ft 262 kts 21°
2026-04-15 04:33 54.19773 108.37557 9563 ft 262 kts 20°
2026-04-15 04:33 54.21455 108.38773 9565 ft 262 kts 21°
2026-04-15 04:34 54.23131 108.40003 9563 ft 262 kts 21°
2026-04-15 04:34 54.24802 108.41223 9560 ft 262 kts 21°
2026-04-15 04:34 54.26446 108.42474 9561 ft 261 kts 22°
2026-04-15 04:34 54.28113 108.43704 9565 ft 260 kts 20°
2026-04-15 04:35 54.29782 108.44897 9565 ft 260 kts 20°
2026-04-15 04:35 54.31450 108.46110 9568 ft 260 kts 21°
2026-04-15 04:35 54.33115 108.47336 9563 ft 261 kts 21°
2026-04-15 04:35 54.34782 108.48564 9560 ft 260 kts 21°
2026-04-15 04:36 54.36456 108.49785 9563 ft 261 kts 21°
2026-04-15 04:36 54.38120 108.51007 9563 ft 260 kts 21°
2026-04-15 04:36 54.39800 108.52203 9562 ft 261 kts 19°
2026-04-15 04:36 54.41477 108.53412 9566 ft 262 kts 21°
2026-04-15 04:37 54.43145 108.54670 9565 ft 262 kts 21°
2026-04-15 04:37 54.44817 108.55945 9559 ft 262 kts 22°
2026-04-15 04:37 54.46485 108.57220 9559 ft 262 kts 21°
2026-04-15 04:37 54.48141 108.58416 9557 ft 262 kts 21°
2026-04-15 04:38 54.49817 108.59635 9560 ft 262 kts 21°
2026-04-15 04:38 54.51487 108.60876 9561 ft 261 kts 21°
2026-04-15 04:38 54.53161 108.62119 9558 ft 263 kts 21°
2026-04-15 04:38 54.54843 108.63358 9561 ft 262 kts 20°
2026-04-15 04:39 54.56529 108.64571 9574 ft 263 kts 20°
2026-04-15 04:39 54.58219 108.65814 9561 ft 264 kts 21°
2026-04-15 04:39 54.59899 108.67086 9567 ft 264 kts 22°
2026-04-15 04:39 54.61571 108.68395 9560 ft 264 kts 22°
2026-04-15 04:40 54.63233 108.69637 9567 ft 263 kts 21°
2026-04-15 04:40 54.64927 108.70866 9558 ft 264 kts 21°
2026-04-15 04:40 54.66614 108.72127 9562 ft 263 kts 22°
2026-04-15 04:40 54.68289 108.73385 9561 ft 262 kts 21°
2026-04-15 04:41 54.69975 108.74601 9557 ft 262 kts 20°
2026-04-15 04:41 54.71660 108.75819 9566 ft 263 kts 21°
2026-04-15 04:41 54.73339 108.77110 9565 ft 263 kts 22°
2026-04-15 04:41 54.74994 108.78375 9561 ft 263 kts 21°
2026-04-15 04:42 54.76676 108.79631 9556 ft 263 kts 22°
2026-04-15 04:42 54.78358 108.80900 9560 ft 263 kts 21°
2026-04-15 04:42 54.80025 108.82193 9555 ft 263 kts 22°
2026-04-15 04:42 54.81714 108.83398 9562 ft 262 kts 19°
2026-04-15 04:43 54.83405 108.84612 9563 ft 263 kts 21°
2026-04-15 04:43 54.85075 108.85925 9566 ft 263 kts 22°
2026-04-15 04:43 54.86751 108.87210 9565 ft 264 kts 21°
2026-04-15 04:43 54.88439 108.88475 9566 ft 264 kts 21°
2026-04-15 04:44 54.90123 108.89744 9568 ft 264 kts 21°
2026-04-15 04:44 54.91791 108.91006 9566 ft 265 kts 21°
2026-04-15 04:44 54.93481 108.92289 9567 ft 265 kts 21°
2026-04-15 04:44 54.95169 108.93568 9566 ft 265 kts 21°
2026-04-15 04:45 54.96862 108.94851 9566 ft 265 kts 21°
2026-04-15 04:45 54.98553 108.96136 9567 ft 265 kts 21°
2026-04-15 04:45 55.00245 108.97423 9567 ft 265 kts 21°
2026-04-15 04:45 55.01944 108.98714 9566 ft 265 kts 21°
2026-04-15 04:46 55.03636 109.00000 9566 ft 266 kts 21°
2026-04-15 04:46 55.07037 109.02597 9560 ft 266 kts 21°
2026-04-15 04:46 55.08711 109.03870 9560 ft 266 kts 22°
2026-04-15 04:47 55.10404 109.05165 9554 ft 265 kts 22°
2026-04-15 04:47 55.12091 109.06459 9556 ft 265 kts 22°
2026-04-15 04:47 55.13788 109.07756 9555 ft 266 kts 22°
2026-04-15 04:47 55.15482 109.09058 9560 ft 266 kts 22°
2026-04-15 04:48 55.17180 109.10363 9557 ft 266 kts 22°
2026-04-15 04:48 55.18874 109.11675 9556 ft 266 kts 21°
2026-04-15 04:48 55.20531 109.12899 9550 ft 249 kts 20°
2026-04-15 04:48 55.22079 109.14059 9536 ft 236 kts 22°
2026-04-15 04:49 55.23529 109.15239 9500 ft 224 kts 23°
2026-04-15 04:49 55.24964 109.16372 9187 ft 227 kts 21°
2026-04-15 04:49 55.26402 109.17459 8848 ft 228 kts 21°
2026-04-15 04:49 55.27854 109.18573 8526 ft 228 kts 22°
2026-04-15 04:50 55.29302 109.19697 8179 ft 226 kts 22°
2026-04-15 04:50 55.30739 109.20804 7869 ft 224 kts 22°
2026-04-15 04:50 55.32179 109.21815 7555 ft 222 kts 17°
2026-04-15 04:50 55.33645 109.22647 7225 ft 220 kts 16°
2026-04-15 04:51 55.35105 109.23451 6910 ft 219 kts 16°
2026-04-15 04:51 55.36570 109.24175 6596 ft 218 kts 11°
2026-04-15 04:51 55.38051 109.24717 6276 ft 216 kts 10°
2026-04-15 04:51 55.39509 109.25225 5940 ft 215 kts
2026-04-15 04:52 55.40970 109.25773 5628 ft 214 kts 13°
2026-04-15 04:52 55.42409 109.26475 5308 ft 213 kts 14°
2026-04-15 04:52 55.43830 109.27192 4994 ft 212 kts 15°
2026-04-15 04:52 55.45253 109.27907 4665 ft 212 kts 14°
2026-04-15 04:53 55.46666 109.28618 4338 ft 211 kts 15°
2026-04-15 04:53 55.48067 109.29412 4015 ft 211 kts 17°
2026-04-15 04:53 55.49462 109.30243 3687 ft 211 kts 18°
2026-04-15 04:53 55.50854 109.31057 3244 ft 210 kts 18°
2026-04-15 04:54 55.52186 109.31791 3275 ft 197 kts 15°
2026-04-15 04:54 55.53482 109.32511 3269 ft 192 kts 18°
2026-04-15 04:54 55.54739 109.33248 3278 ft 186 kts 18°
2026-04-15 04:54 55.55909 109.33941 3271 ft 174 kts 18°
2026-04-15 04:55 55.56992 109.34551 3269 ft 154 kts 17°
2026-04-15 04:55 55.57963 109.35105 3270 ft 141 kts 18°
2026-04-15 04:55 55.58884 109.35610 3276 ft 136 kts 15°
2026-04-15 04:55 55.59777 109.36079 3279 ft 134 kts 17°
2026-04-15 04:56 55.60639 109.36689 3277 ft 133 kts 29°
2026-04-15 04:56 55.61459 109.37414 3271 ft 130 kts 26°
2026-04-15 04:56 55.62265 109.38061 3273 ft 125 kts 26°
2026-04-15 04:56 55.63056 109.38679 3276 ft 125 kts 26°
2026-04-15 04:57 55.63886 109.39330 3284 ft 134 kts 27°
2026-04-15 04:57 55.64712 109.40149 3293 ft 138 kts 33°
2026-04-15 04:57 55.65543 109.41001 3287 ft 137 kts 31°
2026-04-15 04:57 55.66373 109.41874 3165 ft 142 kts 34°
2026-04-15 04:58 55.67214 109.42780 2883 ft 139 kts 33°
2026-04-15 04:58 55.68016 109.43611 2603 ft 130 kts 33°
2026-04-15 04:58 55.68773 109.44373 2429 ft 117 kts 32°
2026-04-15 04:58 55.69461 109.45050 2456 ft 111 kts 32°
2026-04-15 04:59 55.70129 109.45708 2454 ft 109 kts 35°
2026-04-15 04:59 55.70539 109.46215 2455 ft 108 kts 39°
2026-04-15 04:59 55.71148 109.46984 2454 ft 108 kts 38°
2026-04-15 04:59 55.71765 109.47764 2450 ft 110 kts 37°
2026-04-15 05:00 55.72388 109.48549 2456 ft 110 kts 37°
2026-04-15 05:00 55.73011 109.49367 2462 ft 113 kts 38°
2026-04-15 05:00 55.73640 109.50216 2456 ft 116 kts 38°
2026-04-15 05:00 55.74300 109.51102 2390 ft 122 kts 38°
2026-04-15 05:01 55.74966 109.51998 2329 ft 118 kts 39°
2026-04-15 05:01 55.75515 109.52895 2296 ft 94 kts 45°
2026-04-15 05:01 55.75972 109.53653 2239 ft 88 kts 44°
2026-04-15 05:01 55.76407 109.54416 2226 ft 88 kts 46°
2026-04-15 05:02 55.76874 109.55145 2226 ft 90 kts 43°
2026-04-15 05:02 55.77425 109.55746 2180 ft 96 kts 36°
2026-04-15 05:02 55.77981 109.56391 2152 ft 95 kts 43°
2026-04-15 05:02 55.78479 109.57185 2083 ft 99 kts 43°
2026-04-15 05:03 55.79031 109.57944 1977 ft 101 kts 41°
2026-04-15 05:03 55.79571 109.58705 1853 ft 93 kts 39°
2026-04-15 05:03 55.80016 109.59314 1829 ft 63 kts 38°
2026-04-15 05:03 55.80145 109.59528 1828 ft 17 kts 85°
2026-04-15 05:04 55.80140 109.59584 1832 ft 0 kts 85°
2026-04-15 05:04 55.80126 109.59608 1831 ft 13 kts 142°
2026-04-15 05:04 55.80094 109.59710 1830 ft 9 kts 52°
2026-04-15 05:04 55.80137 109.59762 1832 ft 9 kts
2026-04-15 05:05 55.80155 109.59726 1827 ft 3 kts 312°
2026-04-15 05:05 55.80156 109.59725 1828 ft 0 kts 310°